DELTA 1 DEB, 10833

Orbit data source: Space-Track

DELTA 1 DEB, 10833 is space debris in SSO originally from a launch on Thu, 29 Jul 1976 UTC launched from the Air Force Western Test Range (AFWTR). Debris objects in space refer to the collection of defunct objects orbiting the Earth. Examples of debris include non-operational satellites, rocket bodies, and fragments generated from explosions, collisions, or faulty payload assembly.

Loading next visibility...
Identifier
10833, 1976-077CD
Orbit
SSO
Country
Flag of USUS
Related business
Manufacturer
Unknown
Mission
Spacecraft
Bus & Motor
Unknown
Mass
Unknown
Launch date (UTC)
1976-07-29 (50 years ago)
Launch vehicle
Unknown
Launch site
Air Force Western Test Range (AFWTR)
Object type
Payload
Rocket body
Debris
Shape & HBR
Unknown shape, 0.2 m
Radar Cross Section
Medium (>0.1 m² and <1 m²)

Expand to show TLE details & history
Last TLE update: 2 days ago

TLE from 2 days ago
0 DELTA 1 DEB
1 10833U 76077CD  26171.45034631  .00000282  00000-0  25581-2 0  9990
2 10833 102.1107 144.8415 0113805 139.5455  14.1123 12.34763620242819
Epoch: 2026-06-20T10:48Z
TLE epoch observation values (Epoch: 2026-06-20T10:48:29.921Z)
Latitude
25.43007°
Longitude
-100.12107°
Altitude
1,444.409 km
Speed
7.181 km/s
True Right ascension
22h 02m 40s
True Declination
25° 18' 31"
Sunlit
Object was in daylight at epoch
Visualization orbit readout
Latitude
Unknown
Longitude
Unknown
Altitude
Unknown
Speed
Unknown
Apparent Right ascension
Unknown
Apparent Declination
Unknown
Sunlit
N/A
Visualization observer readout
Local Sidereal Time
00:54:28
Azimuth
Unknown
Elevation
Unknown
Doppler factor
Unknown
Orbital elements
Apogee altitude
1,616.425 km
Perigee altitude
1,436.509 km
Semi-major axis
7,904.604 km
Eccentricity
0.01138
Inclination
102.1107°
RAAN
144.8415°
Arg. of periapsis
139.5455°
True anomaly
14.43472°
Mean anomaly
14.1123°
Eccentric anomaly
14.27306°
Mean motion
3.08833 °/min
Orbital period
116.57 mins
BSTAR
0.0025581
Loading maneuver chart data...
Computing Atmospheric mass density...
Loading historical data...
Loading historical data...
Loading historical data...
Loading historical data...
Loading historical data...
Loading historical data...
Loading historical data...

Documentation

Showing up to 5 results
|